When you browse on this site, cookies collect data to enhance your experience and personalize the content and advertising you see.
Visit our Privacy Policy to learn more. By continuing to use the site, you agree to this use of cookies and data.
  • în România
  • Lista ţărilor
  • Pe 7 zile
  • Temperatura apei
  • Hartă satelitară
  • Meteo pe hartă
  • Widget-uri
  • user-avatar
    Intrare

    Meteo pe oră la Keret

    Astăzi, 21 Februarie, Joi

    Timp Temperatura Precipitaţii Vânt Presiune Umiditate
    00:00 -17°C° 0 mm 5 m/s 749 mmHg 84%
    01:00 -17°C° 0 mm 4 m/s 750 mmHg 86%
    02:00 -17°C° 0 mm 4 m/s 750 mmHg 88%
    03:00 -18°C° 0 mm 4 m/s 751 mmHg 88%
    04:00 -18°C° 0 mm 4 m/s 752 mmHg 89%
    05:00 -19°C° 0 mm 4 m/s 752 mmHg 90%
    06:00 -18°C° 0 mm 3 m/s 753 mmHg 90%
    07:00 -18°C° 0 mm 3 m/s 753 mmHg 91%
    08:00 -19°C° 0 mm 3 m/s 754 mmHg 91%
    09:00 -18°C° 0 mm 3 m/s 755 mmHg 90%
    10:00 -16°C° 0 mm 3 m/s 755 mmHg 90%
    11:00 -15°C° 0 mm 3 m/s 756 mmHg 89%
    12:00 -15°C° 0 mm 3 m/s 756 mmHg 89%
    13:00 -14°C° 0 mm 3 m/s 757 mmHg 88%
    14:00 -14°C° 0 mm 3 m/s 757 mmHg 88%
    15:00 -15°C° 0 mm 3 m/s 758 mmHg 89%
    16:00 -15°C° 0 mm 3 m/s 759 mmHg 90%
    17:00 -16°C° 0 mm 3 m/s 759 mmHg 90%
    18:00 -17°C° 0 mm 3 m/s 760 mmHg 90%
    19:00 -17°C° 0 mm 3 m/s 760 mmHg 89%
    20:00 -17°C° 0 mm 2 m/s 761 mmHg 88%
    21:00 -17°C° 0 mm 2 m/s 762 mmHg 88%
    22:00 -18°C° 0 mm 2 m/s 762 mmHg 88%
    23:00 -18°C° 0 mm 2 m/s 763 mmHg 88%

    Mâine, 22 Februarie, Vineri

    Timp Temperatura Precipitaţii Vânt Presiune Umiditate
    00:00 -18°C° 0 mm 2 m/s 763 mmHg 88%
    01:00 -19°C° 0 mm 2 m/s 764 mmHg 88%
    02:00 -19°C° 0 mm 2 m/s 764 mmHg 87%
    03:00 -19°C° 0 mm 2 m/s 765 mmHg 87%
    04:00 -19°C° 0 mm 2 m/s 765 mmHg 86%
    05:00 -19°C° 0 mm 2 m/s 766 mmHg 85%
    06:00 -19°C° 0 mm 2 m/s 766 mmHg 84%
    07:00 -19°C° 0 mm 2 m/s 766 mmHg 83%
    08:00 -19°C° 0 mm 2 m/s 767 mmHg 81%
    09:00 -17°C° 0 mm 2 m/s 767 mmHg 81%
    10:00 -16°C° 0 mm 2 m/s 767 mmHg 81%
    11:00 -14°C° 0 mm 2 m/s 767 mmHg 80%
    12:00 -13°C° 0 mm 2 m/s 767 mmHg 80%
    13:00 -12°C° 0 mm 2 m/s 767 mmHg 81%
    14:00 -10°C° 0 mm 2 m/s 767 mmHg 81%
    15:00 -13°C° 0 mm 3 m/s 767 mmHg 83%
    16:00 -14°C° 0 mm 3 m/s 767 mmHg 84%
    17:00 -14°C° 0 mm 3 m/s 766 mmHg 86%
    18:00 -14°C° 0 mm 3 m/s 766 mmHg 85%
    19:00 -15°C° 0 mm 4 m/s 765 mmHg 84%
    20:00 -15°C° 0 mm 4 m/s 765 mmHg 84%
    21:00 -14°C° 0 mm 5 m/s 764 mmHg 80%
    22:00 -13°C° 0 mm 5 m/s 763 mmHg 75%
    23:00 -12°C° 0 mm 6 m/s 762 mmHg 71%

    Poimâine, 23 Februarie, Sâmbătă

    Timp Temperatura Precipitaţii Vânt Presiune Umiditate
    00:00 -12°C° 0.3 mm 6 m/s 761 mmHg 76%
    01:00 -12°C° 0.3 mm 7 m/s 760 mmHg 82%
    02:00 -12°C° 0.3 mm 7 m/s 759 mmHg 87%
    03:00 -11°C° 0.7 mm 7 m/s 757 mmHg 89%
    04:00 -9°C° 0.7 mm 6 m/s 756 mmHg 91%
    05:00 -9°C° 0.7 mm 6 m/s 755 mmHg 93%
    06:00 -6°C° 0.5 mm 6 m/s 753 mmHg 92%
    07:00 -5°C° 0.5 mm 6 m/s 752 mmHg 91%
    08:00 -2°C° 0.5 mm 5 m/s 751 mmHg 90%
    09:00 -1°C° 0 mm 5 m/s 751 mmHg 93%
    10:00 -1°C° 0 mm 5 m/s 750 mmHg 95%
    11:00 0°C° 0 mm 4 m/s 750 mmHg 98%
    12:00 0°C° 0 mm 5 m/s 749 mmHg 98%
    13:00 0°C° 0 mm 5 m/s 749 mmHg 99%
    14:00 0°C° 0 mm 5 m/s 748 mmHg 99%
    15:00 +1°C° 0.2 mm 5 m/s 749 mmHg 95%
    16:00 +1°C° 0.2 mm 6 m/s 749 mmHg 91%
    17:00 +1°C° 0.2 mm 6 m/s 749 mmHg 87%
    18:00 -1°C° 0 mm 6 m/s 750 mmHg 85%
    19:00 0°C° 0 mm 5 m/s 751 mmHg 83%
    20:00 0°C° 0 mm 5 m/s 752 mmHg 81%
    21:00 -1°C° 0 mm 5 m/s 753 mmHg 82%
    22:00 -1°C° 0 mm 5 m/s 754 mmHg 83%
    23:00 -2°C° 0 mm 4 m/s 755 mmHg 84%

    24 Februarie, Duminică

    Timp Temperatura Precipitaţii Vânt Presiune Umiditate
    00:00 -2°C° 0 mm 4 m/s 755 mmHg 85%
    01:00 -3°C° 0 mm 4 m/s 755 mmHg 86%
    02:00 -3°C° 0 mm 4 m/s 756 mmHg 87%
    03:00 -4°C° 0 mm 4 m/s 756 mmHg 87%
    04:00 -4°C° 0 mm 4 m/s 755 mmHg 88%
    05:00 -5°C° 0 mm 3 m/s 755 mmHg 88%
    06:00 -5°C° 0 mm 3 m/s 755 mmHg 88%
    07:00 -6°C° 0 mm 3 m/s 755 mmHg 89%
    08:00 -6°C° 0 mm 2 m/s 754 mmHg 89%
    09:00 -5°C° 0 mm 3 m/s 754 mmHg 88%
    10:00 -4°C° 0 mm 3 m/s 753 mmHg 86%
    11:00 -2°C° 0 mm 3 m/s 752 mmHg 85%
    12:00 -1°C° 0 mm 3 m/s 751 mmHg 87%
    13:00 -1°C° 0 mm 4 m/s 750 mmHg 90%
    14:00 -1°C° 0 mm 4 m/s 749 mmHg 92%
    15:00 -1°C° 0 mm 4 m/s 749 mmHg 93%
    16:00 -1°C° 0 mm 4 m/s 748 mmHg 94%
    17:00 0°C° 0 mm 4 m/s 747 mmHg 96%
    18:00 0°C° 0.2 mm 4 m/s 747 mmHg 95%
    19:00 0°C° 0.2 mm 5 m/s 746 mmHg 94%
    20:00 0°C° 0.2 mm 5 m/s 746 mmHg 94%
    21:00 -1°C° 0 mm 5 m/s 746 mmHg 89%
    22:00 -1°C° 0 mm 5 m/s 747 mmHg 84%
    23:00 -2°C° 0 mm 5 m/s 747 mmHg 80%

    25 Februarie, Luni

    Timp Temperatura Precipitaţii Vânt Presiune Umiditate
    00:00 -4°C° 0 mm 5 m/s 747 mmHg 81%
    01:00 -5°C° 0 mm 5 m/s 747 mmHg 82%
    02:00 -5°C° 0 mm 4 m/s 747 mmHg 82%
    03:00 -6°C° 0 mm 5 m/s 746 mmHg 82%
    04:00 -6°C° 0 mm 5 m/s 746 mmHg 82%
    05:00 -6°C° 0 mm 5 m/s 745 mmHg 82%
    06:00 -5°C° 0 mm 5 m/s 744 mmHg 82%
    07:00 -5°C° 0 mm 5 m/s 743 mmHg 82%
    08:00 -5°C° 0 mm 5 m/s 743 mmHg 82%
    09:00 -4°C° 0 mm 6 m/s 742 mmHg 82%
    10:00 -2°C° 0 mm 6 m/s 741 mmHg 82%
    11:00 -1°C° 0 mm 6 m/s 741 mmHg 81%
    12:00 -1°C° 0.1 mm 7 m/s 741 mmHg 80%
    13:00 -1°C° 0.1 mm 7 m/s 742 mmHg 78%
    14:00 -1°C° 0.1 mm 8 m/s 742 mmHg 77%
    15:00 -2°C° 0 mm 7 m/s 743 mmHg 78%
    16:00 -2°C° 0 mm 6 m/s 744 mmHg 79%
    17:00 -2°C° 0 mm 6 m/s 745 mmHg 80%
    18:00 -3°C° 0 mm 6 m/s 746 mmHg 79%
    19:00 -3°C° 0 mm 6 m/s 747 mmHg 79%
    20:00 -4°C° 0 mm 6 m/s 748 mmHg 79%
    21:00 -4°C° 0 mm 6 m/s 749 mmHg 80%
    22:00 -5°C° 0 mm 6 m/s 749 mmHg 81%
    23:00 -6°C° 0 mm 5 m/s 750 mmHg 82%

    26 Februarie, Marţi

    Timp Temperatura Precipitaţii Vânt Presiune Umiditate
    00:00 -7°C° 0 mm 5 m/s 750 mmHg 83%
    01:00 -8°C° 0 mm 5 m/s 750 mmHg 84%
    02:00 -8°C° 0 mm 4 m/s 749 mmHg 85%
    03:00 -8°C° 0 mm 3 m/s 749 mmHg 88%
    04:00 -9°C° 0 mm 3 m/s 748 mmHg 90%
    05:00 -8°C° 0 mm 2 m/s 748 mmHg 92%
    06:00 -8°C° 0 mm 2 m/s 747 mmHg 93%
    07:00 -7°C° 0 mm 2 m/s 746 mmHg 94%
    08:00 -7°C° 0 mm 2 m/s 745 mmHg 95%
    09:00 -6°C° 0.3 mm 2 m/s 744 mmHg 95%
    10:00 -5°C° 0.3 mm 2 m/s 744 mmHg 95%
    11:00 -6°C° 0.3 mm 3 m/s 743 mmHg 95%
    12:00 -5°C° 0.1 mm 3 m/s 742 mmHg 94%
    13:00 -5°C° 0.1 mm 3 m/s 741 mmHg 94%
    14:00 -5°C° 0.1 mm 3 m/s 741 mmHg 93%
    15:00 -5°C° 0 mm 3 m/s 740 mmHg 94%
    16:00 -5°C° 0 mm 3 m/s 740 mmHg 95%
    17:00 -4°C° 0 mm 2 m/s 740 mmHg 95%
    18:00 -4°C° 0.1 mm 2 m/s 740 mmHg 96%
    19:00 -4°C° 0.1 mm 2 m/s 740 mmHg 96%
    20:00 -4°C° 0.1 mm 2 m/s 740 mmHg 97%
    21:00 -4°C° 0.3 mm 2 m/s 740 mmHg 97%
    22:00 -4°C° 0.3 mm 2 m/s 740 mmHg 97%
    23:00 -2°C° 0.3 mm 1 m/s 740 mmHg 97%
    Arată mai mult